DeKalb, IL

6:55 PM CDT on April 26, 2017 (GMT -0500)
De Kalb Taylor Municipal

Weather History for KDKB - February, 2013

Change the Weather History Date:

Wednesday, February 27, 2013

  Actual Average (KARR) Record (KARR)
Temperature  
Mean Temperature 30 °F -  
Max Temperature 31 °F 36 °F 56 °F (2016)
Min Temperature 28 °F 21 °F -16 °F (2015)
Degree Days  
Heating Degree Days 36    
Moisture  
Dew Point 27 °F    
Average Humidity 88    
Maximum Humidity 93    
Minimum Humidity 85    
Precipitation  
Precipitation 0.00 in - - ()
Sea Level Pressure  
Sea Level Pressure 29.61 in    
Wind  
Wind Speed 12 mph (NNW)    
Max Wind Speed 16 mph    
Max Gust Speed 22 mph    
Visibility 6 miles    
Events Rain , Snow    
Averages and records for this station are not official NWS values.
T = Trace of Precipitation, MM = Missing Value Source: NWS Daily Summary

Daily Weather History Graph

Daily Weather History Graph

Search for Another Location

Airport or City:

Trip Planner

Search our weather history database for the weather conditions in past years. The results will help you decide how hot, cold, wet, or windy it might be!

Date:

Astronomy

Feb. 27, 2013 Rise Set
Actual Time 6:32 AM CST 5:43 PM CST
Civil Twilight 6:04 AM CST 6:11 PM CST
Nautical Twilight 5:32 AM CST 6:43 PM CST
Astronomical Twilight 4:59 AM CST 7:15 PM CST
Moon 8:07 PM CST (2/27) 7:05 AM CST (2/27)
Length of Visible Light 12h 06m
Length of Day
11h 10m
Waning Gibbous, 96% of the Moon is Illuminated
Feb 27
Waning Gibbous
Mar 4
Last Quarter
Mar 11
New
Mar 19
First Quarter
Mar 27
Full

Hourly Weather History & Observations

Time (CST) Temp. Windchill Dew Point Humidity Pressure Visibility Wind Dir Wind Speed Gust Speed Precip Events Conditions
12:15 AM 31.6 °F 22.6 °F 28.4 °F 88% 29.53 in 10.0 mi North 11.5 mph - N/A   Overcast
12:35 AM 31.6 °F 21.2 °F 28.6 °F 88% 29.54 in 7.0 mi North 15.0 mph - N/A Snow Light Snow
12:55 AM 31.6 °F 21.6 °F 28.8 °F 89% 29.54 in 5.0 mi North 13.8 mph - N/A Snow Light Snow
1:15 AM 31.3 °F 21.6 °F 28.4 °F 89% 29.54 in 5.0 mi North 12.7 mph - N/A   Overcast
1:35 AM 31.1 °F 21.4 °F 28.4 °F 90% 29.55 in 4.0 mi North 12.7 mph - N/A Snow Light Snow
2:15 AM 30.9 °F 21.7 °F 28.4 °F 90% 29.54 in 3.0 mi NNW 11.5 mph - N/A Snow Light Snow
2:35 AM 30.2 °F 21.3 °F 28.4 °F 93% 29.54 in 2.5 mi NNW 10.4 mph - N/A   Overcast
2:55 AM 30.2 °F 21.3 °F 28.0 °F 92% 29.53 in 3.0 mi NNW 10.4 mph - N/A   Overcast
3:15 AM 30.2 °F 21.3 °F 28.0 °F 92% 29.53 in 3.0 mi NNW 10.4 mph - N/A   Overcast
3:35 AM 30.2 °F 21.3 °F 28.0 °F 92% 29.53 in 2.5 mi NNW 10.4 mph 17.3 mph N/A   Overcast
3:55 AM 30.2 °F 19.8 °F 28.0 °F 92% 29.53 in 4.0 mi NNW 13.8 mph - N/A   Overcast
4:15 AM 30.2 °F 18.9 °F 28.0 °F 92% 29.53 in 4.0 mi NNW 16.1 mph - N/A   Overcast
4:35 AM 30.2 °F 19.8 °F 28.0 °F 92% 29.54 in 4.0 mi NNW 13.8 mph - N/A   Overcast
4:55 AM 30.2 °F 20.2 °F 28.0 °F 92% 29.54 in 5.0 mi NNW 12.7 mph 18.4 mph N/A   Overcast
5:15 AM 30.2 °F 20.8 °F 27.9 °F 91% 29.55 in 10.0 mi NNW 11.5 mph 17.3 mph N/A   Overcast
5:35 AM 29.3 °F 19.6 °F 26.6 °F 90% 29.56 in 10.0 mi NNW 11.5 mph 16.1 mph N/A   Overcast
5:55 AM 28.9 °F 18.2 °F 26.2 °F 90% 29.56 in 5.0 mi NNW 13.8 mph 17.3 mph N/A   Overcast
6:15 AM 28.4 °F 18.5 °F 25.7 °F 90% 29.56 in 4.0 mi NNW 11.5 mph - N/A   Overcast
6:35 AM 28.4 °F 19.1 °F 25.7 °F 90% 29.57 in 4.0 mi NW 10.4 mph - N/A   Overcast
6:55 AM 28.2 °F 18.3 °F 25.5 °F 90% 29.57 in 3.0 mi NNW 11.5 mph 16.1 mph N/A   Overcast
7:15 AM 28.4 °F 19.1 °F 24.8 °F 86% 29.58 in 4.0 mi NNW 10.4 mph - N/A   Overcast
7:35 AM 28.0 °F 17.5 °F 25.2 °F 89% 29.58 in 4.0 mi NNW 12.7 mph 17.3 mph N/A   Overcast
7:55 AM 28.0 °F 18.6 °F 25.0 °F 88% 29.58 in 7.0 mi NNW 10.4 mph - N/A   Overcast
8:15 AM 28.2 °F 17.2 °F 25.2 °F 88% 29.58 in 7.0 mi NNW 13.8 mph 19.6 mph N/A   Overcast
8:35 AM 28.4 °F 17.5 °F 25.3 °F 88% 29.58 in 5.0 mi NNW 13.8 mph 19.6 mph N/A Snow Light Snow
8:55 AM 28.4 °F 18.0 °F 24.8 °F 86% 29.58 in 3.0 mi NNW 12.7 mph - N/A Snow Light Snow
9:15 AM 28.4 °F 18.0 °F 25.3 °F 88% 29.59 in 2.5 mi NNW 12.7 mph 19.6 mph N/A Snow Light Snow
9:35 AM 28.4 °F 18.5 °F 25.5 °F 89% 29.59 in 0.8 mi NNW 11.5 mph - N/A Snow Light Snow
9:55 AM 29.1 °F 20.0 °F 26.1 °F 88% 29.59 in 0.8 mi NNW 10.4 mph 18.4 mph N/A Snow Light Snow
10:15 AM 29.1 °F 20.6 °F 26.2 °F 89% 29.59 in 1.0 mi NNW 9.2 mph 17.3 mph N/A Snow Light Snow
10:35 AM 29.3 °F 19.6 °F 26.2 °F 88% 29.59 in 1.2 mi NNW 11.5 mph 16.1 mph N/A Snow Light Snow
10:55 AM 29.3 °F 19.1 °F 26.4 °F 89% 29.59 in 2.5 mi NNW 12.7 mph 17.3 mph N/A Snow Light Snow
11:15 AM 30.2 °F 20.8 °F 27.1 °F 88% 29.59 in 3.0 mi NNW 11.5 mph - N/A Snow Light Snow
11:35 AM 30.2 °F 20.2 °F 27.0 °F 88% 29.59 in 10.0 mi NNW 12.7 mph - N/A Rain Light Freezing Rain
11:55 AM 30.6 °F 21.8 °F 27.1 °F 87% 29.59 in 10.0 mi NW 10.4 mph 17.3 mph N/A   Overcast
12:15 PM 30.6 °F 21.2 °F 26.8 °F 86% 29.59 in 10.0 mi NW 11.5 mph 18.4 mph N/A   Overcast
12:35 PM 30.2 °F 21.3 °F 26.6 °F 86% 29.59 in 10.0 mi NNW 10.4 mph 16.1 mph N/A   Overcast
12:55 PM 30.4 °F 21.5 °F 26.6 °F 86% 29.59 in 10.0 mi NW 10.4 mph 19.6 mph N/A   Overcast
1:15 PM 30.6 °F 21.8 °F 26.6 °F 85% 29.59 in 10.0 mi NNW 10.4 mph - N/A   Overcast
1:35 PM 30.6 °F 20.7 °F 27.0 °F 86% 29.59 in 10.0 mi NW 12.7 mph 17.3 mph N/A   Overcast
1:55 PM 30.6 °F 21.8 °F 27.3 °F 88% 29.59 in 2.5 mi NW 10.4 mph 18.4 mph N/A Snow Light Snow
2:15 PM 30.9 °F 22.2 °F 27.9 °F 88% 29.60 in 2.5 mi NW 10.4 mph - N/A Rain Light Freezing Rain
2:35 PM 30.9 °F 22.2 °F 27.5 °F 87% 29.60 in 3.0 mi NNW 10.4 mph 18.4 mph N/A   Light Freezing Rain
2:55 PM 30.9 °F 22.8 °F 27.9 °F 88% 29.61 in 1.8 mi NW 9.2 mph 19.6 mph N/A Rain Light Freezing Rain
3:15 PM 31.5 °F 22.3 °F 28.4 °F 88% 29.62 in 5.0 mi NW 11.5 mph 17.3 mph N/A   Light Freezing Rain
3:35 PM 31.3 °F 21.6 °F 28.2 °F 88% 29.62 in 2.5 mi NNW 12.7 mph 19.6 mph N/A Rain Light Freezing Rain
3:55 PM 30.9 °F 21.2 °F 27.9 °F 88% 29.63 in 2.0 mi NW 12.7 mph - N/A Rain Light Freezing Rain
4:15 PM 30.9 °F 21.7 °F 28.0 °F 89% 29.63 in 3.0 mi NW 11.5 mph - N/A Snow Light Snow
4:35 PM 31.1 °F 20.5 °F 27.9 °F 88% 29.64 in 4.0 mi NNW 15.0 mph 21.9 mph N/A Snow Light Snow
4:55 PM 31.1 °F 20.5 °F 27.5 °F 87% 29.64 in 7.0 mi NNW 15.0 mph 18.4 mph N/A Snow Light Snow
5:15 PM 30.9 °F 21.2 °F 27.3 °F 86% 29.65 in 4.0 mi NW 12.7 mph 19.6 mph N/A Snow Light Snow
5:35 PM 30.9 °F 20.2 °F 27.3 °F 86% 29.66 in 10.0 mi NNW 15.0 mph 19.6 mph N/A   Overcast
5:55 PM 31.1 °F 21.4 °F 27.5 °F 87% 29.67 in 10.0 mi NW 12.7 mph 18.4 mph N/A   Overcast
6:15 PM 31.1 °F 21.4 °F 27.5 °F 87% 29.67 in 10.0 mi NNW 12.7 mph 18.4 mph N/A   Overcast
6:35 PM 30.9 °F 20.7 °F 27.5 °F 87% 29.67 in 10.0 mi NNW 13.8 mph 21.9 mph N/A   Overcast
6:55 PM 30.9 °F 19.8 °F 27.5 °F 87% 29.68 in 10.0 mi NNW 16.1 mph 21.9 mph N/A   Overcast
7:15 PM 30.9 °F 20.7 °F 27.5 °F 87% 29.69 in 7.0 mi NW 13.8 mph - N/A Snow Light Snow
7:35 PM 30.7 °F 20.0 °F 27.5 °F 88% 29.69 in 4.0 mi NNW 15.0 mph 19.6 mph N/A Snow Light Snow
7:55 PM 30.2 °F 20.2 °F 26.6 °F 86% 29.69 in 4.0 mi NNW 12.7 mph 20.7 mph N/A Snow Light Snow
8:15 PM 30.4 °F 19.5 °F 27.5 °F 89% 29.70 in 5.0 mi NNW 15.0 mph - N/A Snow Light Snow
8:35 PM 30.6 °F 20.2 °F 27.3 °F 88% 29.70 in 5.0 mi NNW 13.8 mph 20.7 mph N/A Snow Light Snow
8:55 PM 30.7 °F 20.4 °F 27.5 °F 88% 29.71 in 7.0 mi NNW 13.8 mph 20.7 mph N/A Snow Light Snow
9:15 PM 30.9 °F 20.7 °F 27.5 °F 87% 29.71 in 7.0 mi NNW 13.8 mph - N/A Snow Light Snow
9:35 PM 30.9 °F 21.7 °F 27.5 °F 87% 29.71 in 7.0 mi NNW 11.5 mph 19.6 mph N/A Snow Light Snow
9:55 PM 30.9 °F 21.2 °F 27.5 °F 87% 29.72 in 10.0 mi NNW 12.7 mph 18.4 mph N/A   Overcast
10:15 PM 30.9 °F 21.7 °F 27.9 °F 88% 29.72 in 10.0 mi NNW 11.5 mph 18.4 mph N/A   Overcast
10:35 PM 30.9 °F 20.7 °F 27.7 °F 88% 29.71 in 10.0 mi NNW 13.8 mph 20.7 mph N/A   Overcast
10:55 PM 31.1 °F 20.9 °F 27.5 °F 87% 29.72 in 5.0 mi NNW 13.8 mph 20.7 mph N/A   Overcast
11:15 PM 30.9 °F 20.2 °F 27.7 °F 88% 29.72 in 4.0 mi NNW 15.0 mph 18.4 mph N/A   Overcast
11:35 PM 30.6 °F 19.8 °F 27.5 °F 88% 29.72 in 2.5 mi NNW 15.0 mph 20.7 mph N/A Snow Light Snow
11:55 PM 30.6 °F 20.2 °F 27.9 °F 90% 29.72 in 3.0 mi NNW 13.8 mph - N/A   Overcast